| time (UTC) | temp C | wind direction | speed KPH | gust KPH | rain 1hr cm | rain 24hr cm | rain mn cm | humidity % | barometer mb |
| 20260902203908 | 18 | 0.0 | 0.0 | 0.00 | 0.00 | 0.00 | 66 | 1024.5 | |
| 20260902202907 | 18 | 0.0 | 0.0 | 0.00 | 0.00 | 0.00 | 66 | 1024.4 | |
| 20260902201909 | 18 | 0.0 | 0.0 | 0.00 | 0.00 | 0.00 | 66 | 1024.4 | |
| 20260902195905 | 18 | 0.0 | 0.0 | 0.00 | 0.00 | 0.00 | 65 | 1024.5 | |
| 20260902194905 | 18 | 0.0 | 0.0 | 0.00 | 0.00 | 0.00 | 65 | 1024.4 | |
| 20260902193904 | 18 | 0.0 | 0.0 | 0.00 | 0.00 | 0.00 | 64 | 1024.4 | |
| 20260902192905 | 19 | 0.0 | 0.0 | 0.00 | 0.00 | 0.00 | 63 | 1024.3 | |
| 20260902191905 | 19 | 0.0 | 0.0 | 0.00 | 0.00 | 0.00 | 62 | 1024.2 | |
| 20260902190909 | 19 | 0.0 | 0.0 | 0.00 | 0.00 | 0.00 | 61 | 1024.2 | |
| 20260902184910 | 20 | 0.0 | 0.0 | 0.00 | 0.00 | 0.00 | 59 | 1023.9 | |
| 20260902182904 | 20 | 0.0 | 0.0 | 0.00 | 0.00 | 0.00 | 57 | 1021.7 | |
| 20260902181909 | 20 | 0.0 | 0.0 | 0.00 | 0.00 | 0.00 | 55 | 1023.7 | |
| 20260902175906 | 21 | 0.0 | 0.0 | 0.00 | 0.00 | 0.00 | 52 | 1023.5 | |
| 20260902174905 | 21 | 0.0 | 0.0 | 0.00 | 0.00 | 0.00 | 50 | 1023.4 | |
| 20260902173908 | 21 | 0.0 | 0.0 | 0.00 | 0.00 | 0.00 | 49 | 1023.3 | |
| 20260902171905 | 21 | 0.0 | 0.0 | 0.00 | 0.00 | 0.00 | 48 | 1023.2 | |
| 20260902170905 | 21 | 0.0 | 0.0 | 0.00 | 0.00 | 0.00 | 47 | 1023.2 | |
| 20260902165906 | 22 | 0.0 | 0.0 | 0.00 | 0.00 | 0.00 | 47 | 1023.3 | |
| 20260902164905 | 22 | 0.0 | 0.0 | 0.00 | 0.00 | 0.00 | 46 | 1023.1 | |
| 20260902163906 | 22 | 0.0 | 0.0 | 0.00 | 0.00 | 0.00 | 45 | 1023.0 | |
| 20260902162905 | 22 | 0.0 | 0.0 | 0.00 | 0.00 | 0.00 | 44 | 1023.2 | |
| 20260902161905 | 22 | 0.0 | 0.0 | 0.00 | 0.00 | 0.00 | 43 | 1023.2 | |
| 20260902160905 | 22 | 0.0 | 0.0 | 0.00 | 0.00 | 0.00 | 41 | 1023.1 | |
| 20260902155905 | 23 | 0.0 | 0.0 | 0.00 | 0.00 | 0.00 | 40 | 1023.1 | |
| 20260902154904 | 23 | 0.0 | 0.0 | 0.00 | 0.00 | 0.00 | 40 | 1023.1 | |
| 20260902153904 | 24 | 0.0 | 0.0 | 0.00 | 0.00 | 0.00 | 40 | 1023.1 | |
| 20260902152904 | 23 | 0.0 | 0.0 | 0.00 | 0.00 | 0.00 | 41 | 1023.2 | |
| 20260902151904 | 23 | 0.0 | 0.0 | 0.00 | 0.00 | 0.00 | 42 | 1023.1 | |
| 20260902150909 | 23 | 0.0 | 0.0 | 0.00 | 0.00 | 0.00 | 43 | 1023.2 | |
| 20260902144904 | 23 | 0.0 | 0.0 | 0.00 | 0.00 | 0.00 | 43 | 1023.3 | |
| 20260902143904 | 23 | 0.0 | 0.0 | 0.00 | 0.00 | 0.00 | 42 | 1023.3 | |
| 20260902142905 | 24 | 0.0 | 0.0 | 0.00 | 0.00 | 0.00 | 41 | 1023.2 | |
| 20260902141905 | 23 | 0.0 | 0.0 | 0.00 | 0.00 | 0.00 | 39 | 1023.1 | |
| 20260902140909 | 24 | 0.0 | 0.0 | 0.00 | 0.00 | 0.00 | 39 | 1022.9 | |
| 20260902134905 | 23 | 0.0 | 0.0 | 0.00 | 0.00 | 0.00 | 41 | 1023.1 | |
| 20260902133905 | 24 | 0.0 | 0.0 | 0.00 | 0.00 | 0.00 | 39 | 1023.0 | |
| 20260902132906 | 25 | 0.0 | 0.0 | 0.00 | 0.00 | 0.00 | 41 | 1022.9 | |
| 20260902131910 | 25 | 0.0 | 0.0 | 0.00 | 0.00 | 0.00 | 41 | 1023.0 | |
| 20260902125905 | 25 | 0.0 | 0.0 | 0.00 | 0.00 | 0.00 | 41 | 1022.8 | |
| 20260902124910 | 24 | 0.0 | 0.0 | 0.00 | 0.00 | 0.00 | 44 | 1022.9 | |
| 20260902122907 | 23 | 0.0 | 0.0 | 0.00 | 0.00 | 0.00 | 45 | 1023.1 | |
| 20260902121908 | 22 | 0.0 | 0.0 | 0.00 | 0.00 | 0.00 | 46 | 1023.2 | |
| 20260902120906 | 22 | 0.0 | 0.0 | 0.00 | 0.00 | 0.00 | 48 | 1023.3 | |
| 20260902115910 | 23 | 0.0 | 0.0 | 0.00 | 0.00 | 0.00 | 46 | 1023.3 | |
| 20260902113905 | 22 | 0.0 | 0.0 | 0.00 | 0.00 | 0.00 | 50 | 1023.4 | |
| 20260902112910 | 22 | 0.0 | 0.0 | 0.00 | 0.00 | 0.00 | 51 | 1023.4 | |
| 20260902110906 | 22 | 0.0 | 0.0 | 0.00 | 0.00 | 0.00 | 53 | 1023.4 | |
| 20260902105905 | 22 | 0.0 | 0.0 | 0.00 | 0.00 | 0.00 | 54 | 1023.4 | |
| 20260902104909 | 21 | 0.0 | 0.0 | 0.00 | 0.00 | 0.00 | 59 | 1023.7 | |
| 20260902102909 | 20 | 0.0 | 0.0 | 0.00 | 0.00 | 0.00 | 64 | 1023.8 | |
| 20260902100909 | 20 | 0.0 | 0.0 | 0.00 | 0.00 | 0.00 | 69 | 1024.1 | |
| 20260902094909 | 18 | 0.0 | 0.0 | 0.00 | 0.00 | 0.00 | 75 | 1024.0 | |
| 20260902092904 | 18 | 0.0 | 0.0 | 0.00 | 0.00 | 0.00 | 78 | 1024.3 | |
| 20260902091904 | 18 | 0.0 | 0.0 | 0.00 | 0.00 | 0.00 | 79 | 1024.4 | |
| 20260902090909 | 18 | 0.0 | 0.0 | 0.00 | 0.00 | 0.00 | 79 | 1024.4 | |
| 20260902084904 | 17 | 0.0 | 0.0 | 0.00 | 0.00 | 0.00 | 82 | 1024.6 | |
| 20260902083904 | 17 | 0.0 | 0.0 | 0.00 | 0.00 | 0.00 | 85 | 1024.6 | |
| 20260902082908 | 17 | 0.0 | 0.0 | 0.00 | 0.00 | 0.00 | 85 | 1024.8 | |
| 20260902075905 | 16 | 0.0 | 0.0 | 0.00 | 0.00 | 0.00 | 83 | 1024.6 | |
| 20260902074909 | 16 | 0.0 | 0.0 | 0.00 | 0.00 | 0.00 | 83 | 1024.4 | |
| 20260902072905 | 16 | 0.0 | 0.0 | 0.00 | 0.00 | 0.00 | 82 | 1024.4 | |
| 20260902071904 | 16 | 0.0 | 0.0 | 0.00 | 0.00 | 0.00 | 83 | 1024.6 | |
| 20260902070909 | 16 | 0.0 | 0.0 | 0.00 | 0.00 | 0.00 | 82 | 1024.4 | |
| 20260902064904 | 16 | 0.0 | 0.0 | 0.00 | 0.00 | 0.00 | 81 | 1024.4 | |
| 20260902063906 | 16 | 0.0 | 0.0 | 0.00 | 0.00 | 0.00 | 81 | 1024.4 | |
| 20260902062906 | 16 | 0.0 | 0.0 | 0.00 | 0.00 | 0.00 | 81 | 1024.5 | |
| 20260902061904 | 16 | 0.0 | 0.0 | 0.00 | 0.00 | 0.00 | 81 | 1024.4 | |
| 20260902060904 | 16 | 0.0 | 0.0 | 0.00 | 0.00 | 0.00 | 81 | 1024.6 | |
| 20260902055905 | 16 | 0.0 | 0.0 | 0.00 | 0.00 | 0.00 | 81 | 1024.3 | |
| 20260902054904 | 16 | 0.0 | 0.0 | 0.00 | 0.00 | 0.00 | 80 | 1024.1 | |
| 20260902053905 | 16 | 0.0 | 0.0 | 0.00 | 0.00 | 0.00 | 80 | 1024.3 | |
| 20260902052910 | 16 | 0.0 | 0.0 | 0.00 | 0.00 | 0.00 | 80 | 1024.4 | |
| 20260902050906 | 16 | 0.0 | 0.0 | 0.00 | 0.00 | 0.00 | 79 | 1024.3 | |
| 20260902045905 | 16 | 0.0 | 0.0 | 0.00 | 0.00 | 0.00 | 79 | 1024.3 | |
| 20260902044909 | 16 | 0.0 | 0.0 | 0.00 | 0.00 | 0.00 | 79 | 1024.2 | |
| 20260902042904 | 16 | 0.0 | 0.0 | 0.00 | 0.00 | 0.00 | 79 | 1024.2 | |
| 20260902041911 | 16 | 0.0 | 0.0 | 0.00 | 0.00 | 0.00 | 79 | 1024.2 | |
| 20260902035905 | 16 | 0.0 | 0.0 | 0.00 | 0.00 | 0.00 | 79 | 1024.4 | |
| 20260902034904 | 16 | 0.0 | 0.0 | 0.00 | 0.00 | 0.00 | 78 | 1024.5 | |
| 20260902033904 | 16 | 0.0 | 0.0 | 0.00 | 0.00 | 0.00 | 77 | 1024.5 | |
| 20260902032905 | 16 | 0.0 | 0.0 | 0.00 | 0.00 | 0.00 | 78 | 1024.5 | |
| 20260902031905 | 16 | 0.0 | 0.0 | 0.00 | 0.00 | 0.00 | 78 | 1024.5 | |
| 20260902030905 | 16 | 0.0 | 0.0 | 0.00 | 0.00 | 0.00 | 78 | 1024.5 | |
| 20260902025905 | 16 | 0.0 | 0.0 | 0.00 | 0.00 | 0.00 | 78 | 1024.5 | |
| 20260902024905 | 16 | 0.0 | 0.0 | 0.00 | 0.00 | 0.00 | 78 | 1024.5 | |
| 20260902023910 | 16 | 0.0 | 0.0 | 0.00 | 0.00 | 0.00 | 78 | 1024.6 | |
| 20260902014912 | 16 | 0.0 | 0.0 | 0.00 | 0.00 | 0.00 | 77 | 1024.5 | |
| 20260902012906 | 16 | 0.0 | 0.0 | 0.00 | 0.00 | 0.00 | 77 | 1024.4 | |
| 20260902011909 | 16 | 0.0 | 0.0 | 0.00 | 0.00 | 0.00 | 77 | 1024.4 | |
| 20260902005905 | 16 | 0.0 | 0.0 | 0.00 | 0.00 | 0.00 | 77 | 1024.3 | |
| 20260902004905 | 16 | 0.0 | 0.0 | 0.00 | 0.00 | 0.00 | 77 | 1024.4 | |
| 20260902003905 | 16 | 0.0 | 0.0 | 0.00 | 0.00 | 0.00 | 77 | 1024.4 | |
| 20260902002904 | 17 | 0.0 | 0.0 | 0.00 | 0.00 | 0.00 | 77 | 1024.5 | |
| 20260902001905 | 17 | 0.0 | 0.0 | 0.00 | 0.00 | 0.00 | 77 | 1024.5 | |
| 20260902000906 | 17 | 0.0 | 0.0 | 0.00 | 0.00 | 0.00 | 77 | 1024.8 | |
| 20260901235906 | 17 | 0.0 | 0.0 | 0.00 | 0.00 | 0.00 | 78 | 1024.6 | |
| 20260901234905 | 17 | 0.0 | 0.0 | 0.00 | 0.00 | 0.00 | 78 | 1024.9 | |
| 20260901233905 | 17 | 0.0 | 0.0 | 0.00 | 0.00 | 0.00 | 78 | 1024.8 | |
| 20260901232906 | 17 | 0.0 | 0.0 | 0.00 | 0.00 | 0.00 | 77 | 1024.8 | |
| 20260901231906 | 17 | 0.0 | 0.0 | 0.00 | 0.00 | 0.00 | 77 | 1024.8 | |
| 20260901230905 | 17 | 0.0 | 0.0 | 0.00 | 0.00 | 0.00 | 77 | 1024.8 | |
| 20260901225905 | 17 | 0.0 | 0.0 | 0.00 | 0.00 | 0.00 | 76 | 1024.6 | |
| 20260901224904 | 17 | 0.0 | 0.0 | 0.00 | 0.00 | 0.00 | 76 | 1024.6 | |
| 20260901223903 | 17 | 0.0 | 0.0 | 0.00 | 0.00 | 0.00 | 76 | 1024.6 | |
| 20260901222904 | 17 | 0.0 | 0.0 | 0.00 | 0.00 | 0.00 | 77 | 1024.5 | |
| 20260901221904 | 18 | 0.0 | 0.0 | 0.00 | 0.00 | 0.00 | 76 | 1024.5 | |
| 20260901220904 | 18 | 0.0 | 0.0 | 0.00 | 0.00 | 0.00 | 76 | 1024.6 | |
| 20260901215909 | 18 | 0.0 | 0.0 | 0.00 | 0.00 | 0.00 | 76 | 1024.6 | |
| 20260901213905 | 18 | 0.0 | 0.0 | 0.00 | 0.00 | 0.00 | 76 | 1024.5 | |
| 20260901212907 | 18 | 0.0 | 0.0 | 0.00 | 0.00 | 0.00 | 75 | 1024.4 | |
| 20260901211905 | 18 | 0.0 | 0.0 | 0.00 | 0.00 | 0.00 | 75 | 1024.4 | |
| 20260901210905 | 18 | 0.0 | 0.0 | 0.00 | 0.00 | 0.00 | 76 | 1024.3 | |
| 20260901205904 | 18 | 0.0 | 0.0 | 0.00 | 0.00 | 0.00 | 75 | 1024.3 | |
| 20260901204907 | 18 | 0.0 | 0.0 | 0.00 | 0.00 | 0.00 | 75 | 1024.4 |